Kenosha, WI

9:49 AM CST on December 18, 2017 (GMT -0600)
Kenosha Regional

Weather History for KENW - December, 2012

Change the Weather History Date:

Thursday, December 6, 2012

  Actual Average Record
Temperature  
Mean Temperature 39 °F -  
Max Temperature 45 °F 37 °F 60 °F (1948)
Min Temperature 33 °F 21 °F -4 °F (2005)
Degree Days  
Heating Degree Days 26    
Moisture  
Dew Point 31 °F    
Average Humidity 70    
Maximum Humidity 80    
Minimum Humidity 61    
Precipitation  
Precipitation 0.00 in - - ()
Sea Level Pressure  
Sea Level Pressure 30.02 in    
Wind  
Wind Speed 8 mph (SSW)    
Max Wind Speed 13 mph    
Max Gust Speed -    
Visibility 10 miles    
Events Rain    
Averages and records for this station are not official NWS values.
T = Trace of Precipitation, MM = Missing Value Source: NWS Daily Summary

Daily Weather History Graph

Daily Weather History Graph

Search for Another Location

Airport or City:

Trip Planner

Search our weather history database for the weather conditions in past years. The results will help you decide how hot, cold, wet, or windy it might be!

Date:

Astronomy

Dec. 06, 2012 Rise Set
Actual Time 7:07 AM CST 4:18 PM CST
Civil Twilight 6:35 AM CST 4:50 PM CST
Nautical Twilight 6:00 AM CST 5:25 PM CST
Astronomical Twilight 5:26 AM CST 5:59 PM CST
Moon No Moon Rise 11:52 AM CST (12/6)
Length of Visible Light 10h 14m
Length of Day
9h 10m
Waning Gibbous, 49% of the Moon is Illuminated
Dec 6
Waning Gibbous
Dec 13
New
Dec 19
First Quarter
Dec 28
Full
Jan 4
Last Quarter

Hourly Weather History & Observations

Time (CST) Temp. Windchill Dew Point Humidity Pressure Visibility Wind Dir Wind Speed Gust Speed Precip Events Conditions
12:53 AM 33.1 °F 28.7 °F 27.0 °F 78% 30.23 in 10.0 mi South 4.6 mph - N/A   Clear
1:53 AM 35.1 °F 29.3 °F 27.0 °F 72% 30.22 in 10.0 mi South 6.9 mph - N/A   Scattered Clouds
2:53 AM 35.1 °F 28.6 °F 26.1 °F 70% 30.20 in 10.0 mi South 8.1 mph - N/A   Clear
3:53 AM 34.0 °F 28.0 °F 26.1 °F 73% 30.17 in 10.0 mi SSE 6.9 mph - N/A   Clear
4:53 AM 34.0 °F 27.2 °F 26.1 °F 73% 30.15 in 10.0 mi South 8.1 mph - N/A   Clear
5:53 AM 34.0 °F 26.0 °F 26.1 °F 73% 30.14 in 10.0 mi South 10.4 mph - N/A   Clear
6:53 AM 34.0 °F 25.5 °F 26.1 °F 73% 30.13 in 10.0 mi South 11.5 mph - N/A   Clear
7:53 AM 34.0 °F 26.6 °F 26.1 °F 73% 30.12 in 10.0 mi South 9.2 mph - N/A   Clear
8:53 AM 36.0 °F 29.0 °F 27.0 °F 70% 30.10 in 10.0 mi South 9.2 mph - N/A   Overcast
9:53 AM 37.0 °F 29.3 °F 28.0 °F 70% 30.09 in 10.0 mi South 11.5 mph - N/A   Clear
10:53 AM 39.9 °F 32.5 °F 30.0 °F 68% 30.06 in 10.0 mi South 12.7 mph - N/A   Clear
11:53 AM 42.1 °F 35.2 °F 30.9 °F 65% 30.02 in 9.0 mi SSW 12.7 mph - N/A   Scattered Clouds
12:53 PM 43.0 °F 36.8 °F 32.0 °F 65% 29.97 in 9.0 mi South 11.5 mph - N/A   Mostly Cloudy
1:53 PM 44.1 °F 39.0 °F 32.0 °F 63% 29.95 in 10.0 mi SSW 9.2 mph - N/A   Overcast
2:02 PM 44.6 °F 39.7 °F 32.0 °F 61% 29.93 in 10.0 mi SSW 9.2 mph - N/A   Overcast
2:53 PM 44.1 °F 38.1 °F 33.1 °F 65% 29.92 in 10.0 mi South 11.5 mph - N/A   Overcast
3:00 PM 44.6 °F 39.2 °F 33.8 °F 66% 29.90 in 10.0 mi South 10.4 mph - N/A   Overcast
3:53 PM 44.1 °F 39.5 °F 33.1 °F 65% 29.92 in 10.0 mi South 8.1 mph - N/A   Overcast
4:53 PM 45.0 °F 38.9 °F 33.1 °F 63% 29.91 in 10.0 mi South 12.7 mph - N/A   Overcast
5:53 PM 45.0 °F 39.3 °F 34.0 °F 65% 29.91 in 10.0 mi WSW 11.5 mph - 0.00 in Rain Light Rain
6:53 PM 44.1 °F 40.8 °F 34.0 °F 68% 29.93 in 10.0 mi SW 5.8 mph - 0.00 in   Overcast
7:53 PM 43.0 °F 40.3 °F 35.1 °F 74% 29.94 in 10.0 mi SW 4.6 mph - N/A   Mostly Cloudy
8:53 PM 44.1 °F 39.5 °F 35.1 °F 71% 29.91 in 10.0 mi SW 8.1 mph - N/A   Partly Cloudy
9:53 PM 44.1 °F 40.1 °F 36.0 °F 73% 29.93 in 10.0 mi WSW 6.9 mph - N/A   Mostly Cloudy
10:53 PM 42.1 °F 38.4 °F 36.0 °F 79% 29.92 in 10.0 mi WSW 5.8 mph - N/A   Clear
11:53 PM 43.0 °F 40.3 °F 37.0 °F 80% 29.92 in 9.0 mi WSW 4.6 mph - N/A   Overcast